Location: Treviso
(45.6669°N, 12.2430°E)
Time: 06:49:59
(UTC+01:00)

ISS - Pass Details

Date: 18 January 2021
Orbit: 418 x 421 km, 51.6° (Epoch: 23 January)

Event Time Altitude Azimuth Distance (km) Brightness Sun altitude
Rises 18:37:17 0° 205° (SSW) 2,356 0.6 -17.1°
Reaches altitude 10° 18:39:40 10° 190° (S) 1,497 -0.7 -17.5°
Enters shadow 18:41:51 21° 150° (SSE) 997 -2.1 -17.9°
